Location: Franzen
(48.6167°N, 15.3833°E)
Time: 10:34:04
(UTC+00:00)

SPOT 5 - Pass Details

Date: 22 April 2021
Orbit: 624 x 814 km, 98.2° (Epoch: 16 May)

Event Time Altitude Azimuth Distance (km) Brightness Sun altitude
Exits shadow 19:34:54 20° 105° (ESE) 1,566 4.1 -14.4°
Maximum altitude 19:37:03 29° 63° (ENE) 1,279 3.9 -14.7°
Drops below altitude 10° 19:41:13 10° 5° (N) 2,227 5.9 -15.2°
Sets 19:43:47 0° 354° (N) 3,187 7.0 -15.5°
